Location: Klein M�hlingen
(51.9472°N, 11.7453°E)
Time: 08:24:04
(UTC+00:00)

Cosmos 2237 Rocket - Pass Details

Date: 09 April 2020
Orbit: 833 x 851 km, 71.0° (Epoch: 01 June)

Event Time Altitude Azimuth Distance (km) Brightness Sun altitude
Rises 23:35:25 0° 330° (NNW) 3,410 6.1 -29.8°
Reaches altitude 10° 23:38:04 10° 339° (NNW) 2,475 5.3 -29.8°
Maximum altitude 23:43:18 37° 46° (NE) 1,302 3.5 -29.7°
Enters shadow 23:45:53 25° 94° (E) 1,664 3.7 -29.6°
